Wind_Speed
19 6 14 9 4 6 8 6 6 3 4 7 11 4 11 15 10 9 18 21 17 12 10 10 14 20 22 21 22 22 19 19 19 18 20 21 21 20 25 26 26 30 31 30
7 8 4 8 2 4 9 8 6 2 3 8 6 15 7 13 13 18 15 17 19 16 11 10 13 16 19 20 21 21 20 19 18 19 22 24 25 25 26 26 27 28 28 28
10 7 8 8 3 4 2 5 4 4 3 2 3 6 7 7 19 26 25 25 23 18 16 14 14 14 14 14 15 18 21 22 22 21 21 21 22 23 24 26 29 29 27 29
6 6 7 8 4 4 2 5 5 6 5 4 3 4 7 6 10 10 29 23 22 18 16 14 13 13 12 13 14 17 20 23 26 28 28 29 29 30 29 29 30 31 32 31
1 4 9 5 3 5 5 3 7 4 4 3 1 0 6 2 7 15 15 22 20 19 18 15 11 10 11 10 11 12 12 13 15 18 24 26 27 29 32 33 34 34 33 30
4 4 4 2 2 3 4 6 8 5 3 1 7 6 5 6 7 5 8 21 20 21 17 13 10 9 10 9 8 8 9 10 12 13 14 15 16 16 16 17 18 19 22 26
4 4 2 2 5 4 4 5 2 1 1 8 3 4 16 6 7 7 11 22 25 22 18 14 11 10 9 8 8 9 10 12 14 15 16 18 18 18 19 19 19 18 18 19
5 3 1 2 2 5 3 4 5 6 4 4 4 8 8 7 12 17 26 31 25 21 18 16 13 11 10 10 11 11 12 13 14 15 16 17 18 18 19 19 20 20 19 19
4 2 1 2 2 2 3 5 4 4 2 3 5 7 9 1 2 13 23 25 22 20 20 19 15 12 11 11 12 13 14 14 14 15 14 14 15 16 16 17 19 20 21 21
6 4 3 3 3 2 1 1 1 2 3 4 5 5 7 4 8 10 13 22 23 20 20 18 15 13 12 12 13 14 15 15 15 14 14 14 13 13 14 15 16 16 15 15
6 4 4 5 7 10 5 4 4 2 4 4 2 5 6 9 10 13 15 26 24 22 20 19 16 13 11 11 12 14 15 15 15 15 14 13 13 13 13 13 14 14 14 15
6 5 4 2 3 4 3 6 5 3 4 2 3 6 3 7 9 15 17 23 21 22 21 18 15 12 12 13 13 15 16 16 15 15 14 13 12 12 11 11 12 12 13 14
5 0 3 2 1 2 6 6 7 1 2 6 5 5 4 3 8 16 19 16 21 21 20 17 14 13 13 14 14 14 14 15 14 13 12 13 13 12 12 12 12 12 12 12
5 3 5 6 4 5 5 10 13 7 4 4 6 4 3 4 7 11 18 20 21 23 20 17 15 14 14 13 12 11 11 13 13 10 10 11 11 11 11 11 10 10 9 9
3 4 2 4 2 4 4 6 14 17 15 8 10 7 7 8 9 18 22 18 22 21 19 17 14 13 13 12 11 12 11 11 10 8 7 7 7 7 8 8 8 8 8 7
2 1 2 4 3 2 4 6 9 15 15 17 8 5 6 10 14 13 18 20 23 23 20 16 14 13 13 12 12 13 11 11 10 8 8 8 8 8 7 6 6 5 4 3
3 4 3 4 4 5 7 12 14 8 10 13 9 18 2 5 12 18 18 23 26 23 19 17 15 12 12 12 13 12 11 11 11 11 10 9 8 7 6 2 2 2 3 4
5 5 3 2 3 1 6 2 7 16 14 13 7 6 10 13 10 17 21 26 23 20 18 16 14 12 11 11 11 8 9 10 11 11 10 8 8 6 4 4 6 8 8 9
4 4 2 3 3 7 5 2 5 6 7 14 17 9 15 16 6 6 15 17 18 18 16 13 12 11 9 9 8 8 8 10 9 9 9 8 7 7 7 9 11 12 12 11
2 2 4 2 3 5 4 3 4 3 5 1 14 9 10 12 7 4 15 14 14 15 14 13 12 10 8 7 6 7 7 7 8 8 9 9 9 9 12 13 12 11 10 8
3 1 5 6 3 6 7 5 1 2 5 10 5 18 18 6 6 9 12 12 11 11 12 12 11 9 7 7 7 8 8 7 9 10 11 11 11 12 12 11 10 9 8 7
6 5 3 4 4 7 3 2 4 4 3 5 1 8 16 15 11 10 9 7 8 10 12 12 11 10 8 8 8 9 10 10 11 11 12 12 12 10 10 9 8 6 5 4
3 6 4 7 5 5 6 5 6 6 4 3 4 9 16 16 12 9 5 2 4 7 10 12 12 11 11 11 10 10 12 12 12 12 11 11 11 11 9 8 5 4 2 1
3 6 3 1 4 7 12 14 11 10 7 6 5 9 11 10 5 6 9 4 5 8 11 13 15 14 13 13 12 12 13 13 12 12 12 12 11 10 9 7 5 3 2 2
4 4 4 5 5 8 14 12 12 12 10 8 8 10 10 7 10 10 9 9 10 14 15 15 17 17 15 15 14 14 14 15 14 13 13 13 12 11 10 8 6 5 5 5
4 4 4 4 10 10 12 8 9 18 16 12 10 10 9 9 9 11 12 13 14 17 18 19 19 19 18 17 17 16 16 16 16 15 15 15 14 13 11 9 8 7 7 7
Wind_Direction
176 166 196 172 122 146 116 113 152 193 195 184 215 203 248 249 277 263 237 231 241 243 244 243 218 213 217 225 231 230 222 226 228 233 239 244 245 250 249 250 253 252 258 259
149 195 168 128 189 117 149 175 179 137 219 192 204 237 208 241 252 252 244 220 224 222 212 209 200 204 211 219 225 225 228 234 237 237 235 238 244 249 253 253 252 254 255 257
148 158 145 159 178 143 91 151 181 153 90 76 109 290 249 234 236 251 249 249 233 228 212 200 206 214 219 222 225 228 231 237 243 241 239 240 244 249 250 250 258 260 260 259
96 158 143 155 185 123 143 209 190 179 139 188 156 266 253 230 234 223 242 241 235 209 198 204 212 219 232 244 252 254 253 252 248 248 250 254 257 259 261 264 265 265 266 264
109 113 145 147 159 141 219 196 159 112 100 107 197 2 272 202 245 232 227 211 201 190 195 195 204 227 244 245 241 241 242 244 245 248 254 258 261 263 263 264 266 267 266 264
59 39 56 106 89 104 142 87 47 55 73 294 197 170 256 210 214 223 197 202 192 183 177 185 194 208 219 221 230 239 244 247 250 253 255 258 259 262 264 266 267 266 267 264
40 11 40 347 87 18 80 94 43 354 317 232 179 163 245 248 238 207 186 187 175 171 176 180 199 201 220 238 256 260 261 261 259 261 264 266 269 272 274 274 276 275 270 268
151 173 193 338 94 158 123 98 166 189 204 238 136 224 241 237 260 223 195 177 175 184 184 188 194 210 235 251 261 265 270 272 271 268 267 270 272 271 272 273 274 276 278 276
153 128 203 334 114 179 175 192 205 114 79 64 219 286 304 106 226 159 169 176 181 182 186 187 199 217 235 249 262 271 275 276 277 275 274 273 273 273 272 272 274 276 276 276
188 124 211 142 106 3 152 321 179 355 152 250 264 269 239 230 190 166 165 174 180 187 185 190 205 223 238 253 267 270 271 274 277 277 276 272 273 272 272 274 275 276 277 277
154 122 144 161 206 183 174 188 224 124 157 188 284 262 215 220 189 176 171 176 184 186 192 198 210 224 242 263 270 270 268 270 274 273 268 268 270 271 271 272 275 278 282 284
179 135 151 202 213 225 213 207 198 181 217 228 160 276 307 250 180 178 171 177 190 191 197 202 216 233 256 269 276 275 270 270 271 269 266 264 265 267 271 274 278 281 283 284
175 39 91 54 195 221 218 195 201 149 46 207 167 256 356 102 157 183 172 182 185 194 194 204 222 242 259 270 276 276 269 268 269 270 266 262 263 266 269 271 271 273 281 287
132 144 165 187 199 138 203 199 197 176 188 194 215 260 269 198 183 190 189 183 191 192 199 210 226 244 259 267 271 274 271 271 274 262 264 267 268 268 268 267 264 268 281 291
116 180 132 247 197 158 212 190 193 213 221 211 234 213 230 212 189 193 193 195 191 195 204 218 234 247 260 264 272 277 272 274 277 279 270 272 269 272 270 265 261 266 273 284
27 143 83 322 279 258 272 254 213 216 228 245 262 280 232 240 215 199 205 199 198 204 212 220 233 249 257 263 272 276 256 257 259 264 263 270 281 286 279 268 267 261 269 281
119 126 82 275 354 350 298 228 215 216 213 215 209 230 165 232 206 211 217 206 208 213 218 226 238 250 254 263 270 263 243 240 242 247 249 251 260 251 242 243 238 158 127 103
138 118 106 224 22 317 242 199 212 220 233 217 249 197 207 229 218 232 220 206 211 217 221 227 238 243 252 267 265 247 226 230 233 234 237 227 227 226 190 155 131 118 107 104
158 170 137 147 200 287 290 197 170 174 266 223 229 210 214 232 191 191 194 206 223 225 225 229 232 236 249 256 237 224 222 222 215 201 197 202 198 175 150 134 126 115 110 107
184 164 133 209 251 252 256 301 227 157 289 13 220 199 189 162 181 237 201 209 212 212 220 222 227 232 235 232 212 198 192 181 183 179 177 177 163 149 137 134 128 118 113 110
151 158 177 226 245 283 255 257 125 89 254 323 272 207 183 171 191 199 185 193 200 210 215 220 223 226 224 220 199 186 177 167 158 153 154 153 145 141 140 138 133 124 120 110
167 176 191 197 218 271 236 93 180 236 291 331 52 182 177 184 154 153 166 195 214 225 224 223 221 221 221 214 201 191 182 171 162 155 152 152 150 151 152 149 143 136 127 115
196 187 187 178 213 249 241 238 273 255 255 218 153 141 157 153 154 150 151 193 249 248 240 233 226 225 222 214 208 201 191 181 174 169 167 167 168 168 169 171 165 162 161 137
253 179 211 112 255 237 257 246 256 227 231 216 199 175 167 158 167 239 252 262 286 266 252 244 234 232 227 219 213 204 202 195 191 185 180 181 184 190 191 193 197 210 244 286
220 134 200 249 295 279 266 251 242 226 222 217 210 204 202 214 218 217 214 230 247 264 263 252 245 240 235 228 220 213 209 207 203 197 196 198 201 208 210 212 220 236 258 277
200 217 184 241 265 239 253 267 253 229 217 220 212 205 218 230 237 245 254 260 258 255 254 252 250 243 236 231 227 220 218 218 212 211 210 210 213 218 221 226 234 242 255 269
Height
1485 1490 1488 1492 1494 1495 1500 1504 1510 1508 1506 1510 1508 1512 1510 1509 1510 1509 1508 1511 1513 1515 1516 1516 1517 1520 1523 1525 1526 1527 1528 1529 1531 1532 1534 1535 1535 1537 1538 1539 1541 1541 1541 1542
1486 1488 1491 1492 1494 1497 1499 1505 1509 1505 1504 1508 1509 1506 1508 1506 1505 1506 1506 1506 1509 1512 1513 1515 1516 1518 1519 1521 1523 1524 1524 1526 1527 1528 1528 1529 1530 1531 1532 1533 1535 1535 1536 1536
1481 1488 1490 1493 1497 1502 1503 1507 1508 1507 1507 1509 1510 1511 1505 1502 1502 1502 1503 1505 1506 1507 1509 1511 1514 1515 1517 1518 1520 1520 1521 1522 1523 1523 1523 1524 1525 1525 1526 1527 1528 1528 1529 1529
1483 1487 1492 1495 1499 1501 1507 1501 1503 1507 1512 1521 1510 1523 1504 1498 1499 1498 1496 1499 1501 1503 1506 1508 1510 1513 1514 1515 1516 1516 1516 1516 1517 1517 1518 1518 1519 1519 1520 1520 1520 1521 1521 1521
1492 1490 1493 1497 1498 1500 1504 1498 1503 1507 1514 1515 1516 1525 1503 1498 1499 1492 1492 1494 1497 1500 1502 1504 1507 1509 1510 1511 1511 1511 1511 1511 1511 1512 1512 1512 1513 1513 1513 1513 1513 1513 1513 1514
1492 1493 1495 1498 1499 1498 1500 1502 1509 1516 1523 1533 1514 1519 1506 1497 1491 1486 1486 1490 1494 1498 1501 1503 1504 1506 1507 1508 1508 1508 1508 1508 1509 1509 1508 1508 1508 1508 1508 1507 1507 1506 1506 1506
1496 1498 1499 1500 1500 1499 1500 1505 1530 1531 1538 1522 1515 1519 1487 1482 1482 1481 1483 1487 1491 1495 1498 1500 1502 1503 1505 1505 1506 1506 1506 1506 1506 1506 1505 1505 1504 1503 1503 1502 1502 1503 1502 1502
1500 1506 1502 1502 1501 1501 1504 1508 1526 1523 1531 1525 1516 1513 1481 1473 1472 1474 1477 1482 1488 1492 1495 1497 1499 1501 1502 1503 1504 1504 1504 1503 1503 1502 1501 1500 1499 1499 1499 1498 1498 1498 1498 1498
1495 1500 1503 1501 1501 1501 1507 1512 1507 1516 1520 1539 1513 1496 1479 1473 1472 1472 1476 1482 1486 1490 1492 1495 1498 1499 1500 1501 1501 1501 1500 1500 1500 1499 1498 1497 1496 1496 1496 1495 1494 1494 1494 1493
1490 1498 1501 1502 1504 1505 1503 1506 1512 1523 1523 1517 1504 1501 1485 1476 1475 1473 1475 1479 1485 1489 1492 1494 1495 1497 1498 1498 1499 1498 1497 1497 1496 1495 1495 1494 1494 1493 1492 1491 1491 1491 1490 1489
1485 1492 1499 1501 1497 1495 1504 1500 1502 1501 1515 1518 1507 1495 1475 1471 1470 1470 1473 1476 1482 1486 1489 1491 1493 1494 1495 1495 1495 1494 1494 1493 1493 1492 1492 1491 1491 1489 1489 1488 1488 1487 1487 1486
1478 1489 1494 1492 1491 1493 1493 1495 1493 1498 1501 1512 1516 1496 1468 1466 1467 1470 1472 1476 1480 1484 1487 1489 1491 1492 1492 1492 1491 1490 1490 1489 1489 1489 1488 1488 1487 1487 1486 1486 1485 1485 1484 1483
1475 1490 1500 1496 1497 1493 1491 1491 1489 1493 1497 1507 1511 1488 1467 1467 1469 1471 1472 1475 1479 1482 1485 1486 1488 1488 1489 1489 1488 1487 1486 1486 1486 1485 1485 1484 1484 1483 1483 1483 1483 1482 1481 1479
1472 1483 1489 1493 1482 1485 1492 1485 1487 1493 1505 1487 1489 1475 1469 1470 1470 1470 1473 1475 1477 1480 1482 1484 1485 1486 1486 1486 1485 1484 1483 1482 1482 1481 1482 1481 1481 1481 1481 1481 1480 1479 1478 1476
1474 1488 1490 1481 1477 1480 1481 1481 1483 1483 1477 1483 1468 1474 1467 1466 1467 1468 1470 1473 1475 1477 1479 1480 1481 1481 1482 1482 1482 1481 1480 1480 1480 1479 1479 1480 1480 1479 1479 1478 1477 1476 1474 1473
1476 1492 1489 1492 1479 1478 1479 1477 1478 1476 1477 1476 1473 1471 1463 1463 1465 1467 1467 1469 1471 1473 1476 1477 1477 1477 1478 1479 1478 1477 1477 1478 1478 1478 1479 1479 1479 1478 1477 1476 1474 1473 1472 1471
1477 1487 1498 1502 1486 1483 1482 1470 1469 1468 1466 1466 1474 1453 1461 1460 1460 1461 1464 1466 1467 1470 1472 1473 1474 1475 1476 1476 1475 1474 1474 1475 1476 1477 1477 1478 1477 1476 1475 1473 1472 1472 1471 1471
1478 1482 1495 1506 1493 1508 1462 1455 1457 1458 1455 1459 1456 1455 1457 1457 1457 1458 1460 1461 1465 1468 1469 1470 1471 1472 1472 1472 1472 1471 1472 1473 1474 1474 1475 1475 1475 1473 1473 1472 1471 1472 1472 1472
1471 1474 1487 1502 1505 1476 1452 1453 1455 1458 1452 1448 1449 1450 1452 1455 1457 1457 1458 1461 1463 1465 1466 1468 1469 1470 1469 1469 1469 1470 1469 1470 1471 1471 1471 1473 1473 1473 1472 1472 1473 1473 1474 1474
1469 1470 1485 1483 1482 1482 1457 1449 1449 1450 1457 1443 1443 1445 1448 1452 1458 1457 1457 1459 1461 1463 1464 1465 1466 1467 1466 1467 1467 1468 1468 1468 1468 1468 1470 1472 1472 1472 1472 1473 1474 1474 1475 1476
1471 1473 1483 1479 1479 1470 1453 1449 1450 1461 1456 1442 1440 1441 1445 1450 1452 1453 1455 1457 1459 1460 1461 1462 1464 1464 1464 1465 1466 1466 1468 1468 1468 1469 1470 1471 1472 1473 1474 1475 1476 1476 1476 1476
1472 1474 1471 1472 1474 1480 1449 1451 1455 1449 1445 1443 1440 1440 1444 1447 1450 1452 1454 1456 1457 1458 1459 1460 1461 1461 1462 1463 1465 1466 1467 1468 1468 1469 1470 1472 1473 1474 1476 1477 1477 1476 1476 1477
1468 1463 1468 1466 1463 1450 1449 1447 1446 1445 1445 1444 1443 1443 1444 1447 1450 1451 1453 1454 1455 1456 1458 1459 1460 1460 1461 1462 1463 1465 1467 1467 1468 1469 1470 1471 1473 1474 1476 1476 1476 1476 1476 1476
1455 1454 1458 1456 1448 1447 1446 1445 1445 1444 1444 1444 1445 1446 1446 1447 1450 1452 1453 1454 1454 1455 1455 1456 1457 1458 1459 1460 1462 1464 1465 1466 1467 1468 1469 1471 1472 1474 1474 1474 1474 1475 1475 1475
1454 1453 1453 1452 1447 1446 1443 1442 1443 1443 1444 1444 1445 1446 1447 1448 1450 1451 1451 1453 1453 1453 1453 1454 1454 1456 1458 1459 1460 1462 1463 1464 1465 1466 1468 1469 1471 1472 1473 1473 1473 1473 1473 1474
1450 1449 1452 1449 1442 1441 1439 1439 1438 1439 1441 1442 1444 1445 1446 1447 1448 1449 1449 1450 1450 1450 1450 1450 1451 1453 1454 1456 1458 1459 1460 1461 1463 1464 1465 1467 1468 1470 1470 1470 1471 1471 1471 1471